Latest METARs, TAFs and NOTAMs for SBEG


---------------------------------------------------------------------------
	(OBSERVATIONS)
SBEG 212300Z 33002KT 9999 FEW025 26/24 Q1006=
SBEG 212200Z 23001KT 9999 SCT025 FEW030TCU SCT100 28/23 Q1005=
SBEG 212100Z 16003KT 9999 VCSH SCT025 FEW030TCU 28/25 Q1005 RET
    S=
---------------------------------------------------------------------------
	(TERMINAL AREA FORECAST)
SBEG 212200Z 2200/2224 00000KT 9999 FEW020 TN25/2210Z
    TX32/2218Z
    BECMG 2201/2203 35002KT FEW008
    BECMG 2205/2207 00000KT
    BECMG 2209/2211 070 05KT
    BECMG 2213/2215 SCT025
    BECMG 2217/2218 33005KT 9999 TS SCT030 FEW035 CB
    BECMG 2220/2222 22002KT 9999 FEW025 FEW030TCU RMK PDY=
---------------------------------------------------------------------------
	(NOTAMS)


SBEG M0057/04 INSTR APCH CHART CHARLIE 2 (RWY 10 ILS/DME) IN
    THE BOX FULL ILS CHANGE FROM VIS ALS TO VIS/RVR 800M/550M.
    03 APR 00:00 2004 UNTIL PERM. CREATED: 27 MAR 09:38 2004

SBEG M0080/04 INSTR APCH CHART (GPS) RWY 10 DATED MAY 15 2004
    (SEE AIP SUP A039 DATED APR 15 2004) INSTALLED. 28 APR 01:28
    2004 UNTIL PERM. CREATED: 28 APR 03:08 2004

SBEG O0308/18 OBST (TOWER) LGTD COORD 030312.20S/0600448.80W
    ELEV 426,5FT ERECTE D REF: AIP AD 2.10. 07 JUN 15:10 2018
    UNTIL PERM. CREATED: 07 JUN 15:10 2018

SBEG O0380/18 UA (RPA FLT) WILL TAKE A PLACE COORD CENTER 025609S/0595720W
    RADI US 01NM. GND - 1640FT AGL, 15 AUG 20:00 2018 UNTIL 11
    NOV 23:59 2018. CREATED: 16 JUL 14:04 2018

SBEG O0397/18 OBST (TOWER) LGTD ERECTED: 1 - COORD 030434.80S/0600444.40W
    ELEV 574,14FT 2 - COORD 030353.00S/0600237.00W ELEV 413,38FT
    AIP AD 2. 24 JUL 14:01 2018 UNTIL PERM. CREATED: 24 JUL 15:02
    2018

SBEG O0403/18 UA (FLT RPA) WILL TAKE PLACE COORD 030530S/0600102W
    RADIUS 01NM. GND - 1640FT AGL, 15 AUG 20:00 2018 UNTIL 11
    NOV 23:59 2018. CREATED: 25 JUL 18:24 2018

SBEG O0464/17 RNAV SID SOVKO 1A RWY 28 CORRECT SBR-715 (BALBINA
    WHISKY ALTA) UPPE R VERTICAL BDRY FROM FL470 TO FL350 REF:
    AIP MAP. 12 JUL 17:57 2017 UNTIL PERM. CREATED: 12 JUL 22:35
    2017

SBEG O0515/17 TWR - D-CL (DATA LINK CLRD) AUTH TFC VIA DATA LINK
    ACT H24 REF: AIP AD 2.24 ADC, PDC, VAC, SID(ALL), IAC(ALL.
    31 JUL 01:48 2017 UNTIL PERM. CREATED: 31 JUL 01:49 2017

SBEG O0579/17 RWY 10/28 IDENT CHANGED TO 11/29 REF: AIP AD 2.24.
    14 AUG 20:14 2017 UNTIL PERM. CREATED: 14 AUG 20:29 2017

SBEG O0589/17 STAR RNAV IRUMO 1A RWY 11 AND STAR RNAV MOLDO 1A
    RWY 11 CORRECT: ALT TO PASS ARSOS WAYPOINT 4000FT OR ABOVE.
    17 AUG 00:00 2017 UNTIL PERM. CREATED: 16 AUG 21:00 2017

SBEG O0596/17 ATIS D-ATIS (DATA LINK ATIS) AVBL INFO VIA DATA
    LINK H24 REF: AIP AD 2.24 PDC, VAC, SID(ALL), IAC(ALL. 18
    AUG 14:40 2017 UNTIL PERM. CREATED: 18 AUG 14:43 2017

SBEG O0831/16 MANAUS APP FREQ 120.90MHZ CNL REF: AIP AD 2.24.
    10 NOV 16:05 2016 UNTIL PERM. CREATED: 10 NOV 16:08 2016

SBEG V0094/18 [US DOD PROCEDURAL NOTAM] STANDARD INSTRUMENT DEPARTURE
    (SID) LIMITED EPKIN 1B-ILKUP 1B DEP ILKUP 1B NOT AVAILABLE.
    01 SEP 00:00 2018 UNTIL 01 DEC 23:59 2018. CREATED: 30 AUG
    11:09 2018

---------------------------------------------------------------------------